| time (UTC) | temp C | wind direction | speed KPH | gust KPH | rain 1hr cm | rain 24hr cm | rain mn cm | humidity % | barometer mb |
| 20260503223507 | 18 | 256 | 1.6 | 9.7 | 0.00 | 0.00 | 0.00 | 40 | 1016.9 |
| 20260503223015 | 18 | 148 | 1.6 | 11.3 | 0.00 | 0.00 | 0.00 | 40 | 1016.9 |
| 20260503222507 | 18 | 239 | 4.8 | 11.3 | 0.00 | 0.00 | 0.00 | 40 | 1017.1 |
| 20260503222007 | 18 | 80 | 1.6 | 9.7 | 0.00 | 0.00 | 0.00 | 41 | 1017.1 |
| 20260503221520 | 18 | 253 | 0.0 | 8.0 | 0.00 | 0.00 | 0.00 | 40 | 1017.1 |
| 20260503221012 | 18 | 246 | 3.2 | 8.0 | 0.00 | 0.00 | 0.00 | 39 | 1017.1 |
| 20260503220508 | 18 | 189 | 1.6 | 8.0 | 0.00 | 0.00 | 0.00 | 42 | 1017.2 |
| 20260503220024 | 18 | 307 | 3.2 | 9.7 | 0.00 | 0.00 | 0.00 | 41 | 1017.3 |
| 20260503215508 | 18 | 277 | 4.8 | 9.7 | 0.00 | 0.00 | 0.00 | 39 | 1017.3 |
| 20260503215010 | 18 | 164 | 1.6 | 8.0 | 0.00 | 0.00 | 0.00 | 41 | 1017.3 |
| 20260503214528 | 18 | 294 | 1.6 | 9.7 | 0.00 | 0.00 | 0.00 | 42 | 1017.3 |
| 20260503214008 | 18 | 246 | 1.6 | 9.7 | 0.00 | 0.00 | 0.00 | 42 | 1017.3 |
| 20260503213508 | 18 | 270 | 3.2 | 9.7 | 0.00 | 0.00 | 0.00 | 40 | 1017.3 |
| 20260503213027 | 18 | 139 | 1.6 | 11.3 | 0.00 | 0.00 | 0.00 | 38 | 1017.4 |
| 20260503212510 | 18 | 253 | 3.2 | 11.3 | 0.00 | 0.00 | 0.00 | 39 | 1017.3 |
| 20260503212007 | 18 | 209 | 1.6 | 11.3 | 0.00 | 0.00 | 0.00 | 38 | 1017.4 |
| 20260503211520 | 18 | 260 | 1.6 | 11.3 | 0.00 | 0.00 | 0.00 | 41 | 1017.4 |
| 20260503211007 | 18 | 228 | 4.8 | 9.7 | 0.00 | 0.00 | 0.00 | 41 | 1017.5 |
| 20260503210507 | 18 | 327 | 3.2 | 9.7 | 0.00 | 0.00 | 0.00 | 42 | 1017.5 |
| 20260503210023 | 18 | 335 | 1.6 | 9.7 | 0.00 | 0.00 | 0.00 | 39 | 1017.6 |
| 20260503205507 | 18 | 207 | 3.2 | 11.3 | 0.00 | 0.00 | 0.00 | 41 | 1017.8 |
| 20260503205008 | 18 | 28 | 3.2 | 11.3 | 0.00 | 0.00 | 0.00 | 38 | 1017.8 |
| 20260503204528 | 18 | 236 | 3.2 | 11.3 | 0.00 | 0.00 | 0.00 | 40 | 1017.8 |
| 20260503204008 | 18 | 182 | 1.6 | 11.3 | 0.00 | 0.00 | 0.00 | 40 | 1017.9 |
| 20260503203510 | 18 | 28 | 3.2 | 9.7 | 0.00 | 0.00 | 0.00 | 45 | 1018.0 |
| 20260503203032 | 17 | 200 | 3.2 | 12.9 | 0.00 | 0.00 | 0.00 | 42 | 1018.0 |
| 20260503202509 | 17 | 215 | 4.8 | 12.9 | 0.00 | 0.00 | 0.00 | 43 | 1018.1 |
| 20260503202012 | 17 | 232 | 3.2 | 9.7 | 0.00 | 0.00 | 0.00 | 42 | 1018.2 |
| 20260503201528 | 17 | 102 | 1.6 | 12.9 | 0.00 | 0.00 | 0.00 | 40 | 1018.5 |
| 20260503201006 | 17 | 26 | 3.2 | 12.9 | 0.00 | 0.00 | 0.00 | 43 | 1018.6 |
| 20260503200511 | 17 | 234 | 4.8 | 12.9 | 0.00 | 0.00 | 0.00 | 43 | 1018.7 |
| 20260503200024 | 17 | 249 | 1.6 | 9.7 | 0.00 | 0.00 | 0.00 | 39 | 1018.7 |
| 20260503195507 | 17 | 260 | 3.2 | 9.7 | 0.00 | 0.00 | 0.00 | 48 | 1018.7 |
| 20260503195010 | 17 | 181 | 1.6 | 8.0 | 0.00 | 0.00 | 0.00 | 43 | 1018.7 |
| 20260503194527 | 17 | 92 | 3.2 | 11.3 | 0.00 | 0.00 | 0.00 | 39 | 1018.8 |
| 20260503194003 | 17 | 214 | 3.2 | 11.3 | 0.00 | 0.00 | 0.00 | 42 | 1018.9 |
| 20260503193507 | 17 | 275 | 4.8 | 11.3 | 0.00 | 0.00 | 0.00 | 43 | 1018.9 |
| 20260503193007 | 16 | 148 | 1.6 | 11.3 | 0.00 | 0.00 | 0.00 | 41 | 1019.0 |
| 20260503192506 | 17 | 216 | 6.4 | 11.3 | 0.00 | 0.00 | 0.00 | 43 | 1019.1 |
| 20260503192004 | 16 | 208 | 1.6 | 11.3 | 0.00 | 0.00 | 0.00 | 41 | 1019.2 |
| 20260503191513 | 17 | 251 | 4.8 | 11.3 | 0.00 | 0.00 | 0.00 | 49 | 1019.3 |
| 20260503191006 | 17 | 232 | 3.2 | 9.7 | 0.00 | 0.00 | 0.00 | 44 | 1019.3 |
| 20260503190509 | 16 | 268 | 3.2 | 11.3 | 0.00 | 0.00 | 0.00 | 48 | 1019.4 |
| 20260503190018 | 16 | 176 | 3.2 | 11.3 | 0.00 | 0.00 | 0.00 | 44 | 1019.4 |
| 20260503185506 | 16 | 128 | 1.6 | 9.7 | 0.00 | 0.00 | 0.00 | 42 | 1019.5 |
| 20260503185013 | 17 | 227 | 3.2 | 11.3 | 0.00 | 0.00 | 0.00 | 45 | 1019.6 |
| 20260503184524 | 16 | 250 | 3.2 | 11.3 | 0.00 | 0.00 | 0.00 | 45 | 1019.5 |
| 20260503184002 | 16 | 312 | 1.6 | 9.7 | 0.00 | 0.00 | 0.00 | 43 | 1019.7 |
| 20260503183504 | 17 | 9 | 3.2 | 9.7 | 0.00 | 0.00 | 0.00 | 45 | 1019.7 |
| 20260503183007 | 16 | 246 | 3.2 | 8.0 | 0.00 | 0.00 | 0.00 | 46 | 1019.7 |
| 20260503182503 | 16 | 322 | 1.6 | 8.0 | 0.00 | 0.00 | 0.00 | 40 | 1019.8 |
| 20260503182004 | 16 | 243 | 3.2 | 11.3 | 0.00 | 0.00 | 0.00 | 44 | 1020.0 |
| 20260503181512 | 16 | 339 | 4.8 | 11.3 | 0.00 | 0.00 | 0.00 | 42 | 1020.1 |
| 20260503181007 | 16 | 247 | 3.2 | 11.3 | 0.00 | 0.00 | 0.00 | 43 | 1020.1 |
| 20260503180504 | 16 | 166 | 3.2 | 11.3 | 0.00 | 0.00 | 0.00 | 44 | 1020.1 |
| 20260503180016 | 15 | 17 | 3.2 | 11.3 | 0.00 | 0.00 | 0.00 | 46 | 1020.2 |
| 20260503175507 | 15 | 168 | 4.8 | 12.9 | 0.00 | 0.00 | 0.00 | 46 | 1020.3 |
| 20260503175007 | 16 | 179 | 4.8 | 12.9 | 0.00 | 0.00 | 0.00 | 41 | 1020.4 |
| 20260503174530 | 15 | 270 | 1.6 | 11.3 | 0.00 | 0.00 | 0.00 | 45 | 1020.4 |
| 20260503174007 | 15 | 249 | 4.8 | 9.7 | 0.00 | 0.00 | 0.00 | 48 | 1020.5 |
| 20260503173032 | 16 | 160 | 3.2 | 11.3 | 0.00 | 0.00 | 0.00 | 43 | 1020.6 |
| 20260503172514 | 15 | 353 | 1.6 | 11.3 | 0.00 | 0.00 | 0.00 | 44 | 1020.7 |
| 20260503172004 | 15 | 54 | 3.2 | 11.3 | 0.00 | 0.00 | 0.00 | 43 | 1020.7 |
| 20260503171510 | 15 | 256 | 4.8 | 9.7 | 0.00 | 0.00 | 0.00 | 48 | 1020.9 |
| 20260503171003 | 15 | 265 | 1.6 | 8.0 | 0.00 | 0.00 | 0.00 | 47 | 1021.0 |
| 20260503170503 | 15 | 201 | 4.8 | 12.9 | 0.00 | 0.00 | 0.00 | 48 | 1021.0 |
| 20260503151011 | 15 | 124 | 0.0 | 6.4 | 0.00 | 0.00 | 0.00 | 47 | 1021.9 |
| 20260503150508 | 15 | 212 | 1.6 | 6.4 | 0.00 | 0.00 | 0.00 | 46 | 1022.0 |
| 20260503131008 | 11 | 16 | 1.6 | 6.4 | 0.00 | 0.00 | 0.00 | 64 | 1021.8 |
| 20260503130507 | 11 | 264 | 0.0 | 4.8 | 0.00 | 0.00 | 0.00 | 67 | 1021.8 |
| 20260503110510 | 2 | 263 | 0.0 | 0.0 | 0.00 | 0.00 | 0.00 | 85 | 1020.5 |
| 20260503090507 | 5 | 21 | 0.0 | 0.0 | 0.00 | 0.00 | 0.00 | 81 | 1019.8 |
| 20260503081506 | 6 | 21 | 0.0 | 0.0 | 0.00 | 0.00 | 0.00 | 76 | 1019.3 |
| 20260503072509 | 7 | 21 | 0.0 | 0.0 | 0.00 | 0.00 | 0.00 | 69 | 1018.6 |
| 20260503072012 | 7 | 21 | 0.0 | 0.0 | 0.00 | 0.00 | 0.00 | 69 | 1018.5 |
| 20260503071506 | 8 | 21 | 0.0 | 0.0 | 0.00 | 0.00 | 0.00 | 68 | 1018.5 |
| 20260503054522 | 10 | 26 | 0.0 | 3.2 | 0.00 | 0.00 | 0.00 | 65 | 1018.4 |
| 20260503054006 | 10 | 24 | 0.0 | 1.6 | 0.00 | 0.00 | 0.00 | 65 | 1018.3 |
| 20260503052008 | 10 | 49 | 0.0 | 3.2 | 0.00 | 0.00 | 0.00 | 65 | 1018.2 |
| 20260503051008 | 10 | 22 | 0.0 | 4.8 | 0.00 | 0.00 | 0.00 | 64 | 1018.1 |
| 20260503050509 | 10 | 15 | 0.0 | 4.8 | 0.00 | 0.00 | 0.00 | 64 | 1018.1 |
| 20260503050024 | 10 | 19 | 0.0 | 1.6 | 0.00 | 0.00 | 0.00 | 64 | 1018.1 |
| 20260503045509 | 10 | 19 | 0.0 | 1.6 | 0.00 | 0.00 | 0.00 | 63 | 1018.1 |
| 20260503045011 | 10 | 19 | 0.0 | 0.0 | 0.00 | 0.00 | 0.00 | 62 | 1018.1 |
| 20260503044542 | 10 | 19 | 0.0 | 0.0 | 0.00 | 0.00 | 0.00 | 62 | 1018.2 |
| 20260503044005 | 10 | 19 | 0.0 | 1.6 | 0.00 | 0.00 | 0.00 | 61 | 1018.1 |
| 20260503043035 | 11 | 19 | 0.0 | 3.2 | 0.00 | 0.00 | 0.00 | 61 | 1018.1 |
| 20260503041010 | 11 | 65 | 0.0 | 4.8 | 0.00 | 0.00 | 0.00 | 60 | 1017.8 |
| 20260503035508 | 11 | 11 | 0.0 | 9.7 | 0.00 | 0.00 | 0.00 | 59 | 1017.8 |
| 20260503035007 | 11 | 4 | 0.0 | 9.7 | 0.00 | 0.00 | 0.00 | 59 | 1017.8 |
| 20260503034526 | 11 | 19 | 3.2 | 9.7 | 0.00 | 0.00 | 0.00 | 59 | 1017.8 |
| 20260503034008 | 11 | 24 | 3.2 | 8.0 | 0.00 | 0.00 | 0.00 | 59 | 1017.8 |
| 20260503033512 | 11 | 336 | 1.6 | 8.0 | 0.00 | 0.00 | 0.00 | 59 | 1017.8 |
| 20260503033027 | 11 | 21 | 3.2 | 8.0 | 0.00 | 0.00 | 0.00 | 58 | 1017.8 |
| 20260503024014 | 12 | 12 | 4.8 | 14.5 | 0.00 | 0.00 | 0.00 | 57 | 1017.3 |
| 20260503023508 | 12 | 315 | 1.6 | 6.4 | 0.00 | 0.00 | 0.00 | 57 | 1017.3 |
| 20260503023025 | 12 | 24 | 1.6 | 6.4 | 0.00 | 0.00 | 0.00 | 56 | 1017.3 |
| 20260503022510 | 12 | 28 | 1.6 | 11.3 | 0.00 | 0.00 | 0.00 | 56 | 1017.2 |
| 20260503022015 | 12 | 329 | 3.2 | 11.3 | 0.00 | 0.00 | 0.00 | 56 | 1017.3 |
| 20260503021528 | 12 | 40 | 3.2 | 8.0 | 0.00 | 0.00 | 0.00 | 56 | 1017.2 |
| 20260503021010 | 12 | 360 | 0.0 | 9.7 | 0.00 | 0.00 | 0.00 | 56 | 1017.2 |
| 20260503020511 | 12 | 21 | 1.6 | 9.7 | 0.00 | 0.00 | 0.00 | 56 | 1017.1 |
| 20260503020002 | 12 | 19 | 1.6 | 9.7 | 0.00 | 0.00 | 0.00 | 56 | 1017.0 |
| 20260503015504 | 12 | 34 | 1.6 | 9.7 | 0.00 | 0.00 | 0.00 | 56 | 1017.1 |
| 20260503015003 | 12 | 297 | 3.2 | 8.0 | 0.00 | 0.00 | 0.00 | 56 | 1016.9 |
| 20260503014505 | 12 | 20 | 1.6 | 8.0 | 0.00 | 0.00 | 0.00 | 55 | 1016.8 |
| 20260503014003 | 12 | 31 | 3.2 | 9.7 | 0.00 | 0.00 | 0.00 | 55 | 1016.7 |
| 20260503013503 | 12 | 21 | 1.6 | 9.7 | 0.00 | 0.00 | 0.00 | 55 | 1016.7 |
| 20260503013003 | 12 | 352 | 1.6 | 6.4 | 0.00 | 0.00 | 0.00 | 55 | 1016.6 |
| 20260503012504 | 12 | 62 | 1.6 | 6.4 | 0.00 | 0.00 | 0.00 | 55 | 1016.6 |
| 20260503012004 | 12 | 19 | 0.0 | 4.8 | 0.00 | 0.00 | 0.00 | 54 | 1016.6 |
| 20260503011503 | 12 | 32 | 1.6 | 6.4 | 0.00 | 0.00 | 0.00 | 54 | 1016.4 |
| 20260503011004 | 12 | 327 | 0.0 | 6.4 | 0.00 | 0.00 | 0.00 | 53 | 1016.4 |
| 20260503010502 | 12 | 38 | 0.0 | 4.8 | 0.00 | 0.00 | 0.00 | 53 | 1016.4 |
| 20260503010002 | 12 | 20 | 0.0 | 4.8 | 0.00 | 0.00 | 0.00 | 52 | 1016.2 |
| 20260503005503 | 12 | 21 | 0.0 | 4.8 | 0.00 | 0.00 | 0.00 | 52 | 1016.0 |
| 20260503005004 | 12 | 26 | 1.6 | 4.8 | 0.00 | 0.00 | 0.00 | 51 | 1016.0 |
| 20260503004504 | 13 | 5 | 0.0 | 4.8 | 0.00 | 0.00 | 0.00 | 51 | 1016.0 |
| 20260503004007 | 13 | 28 | 1.6 | 4.8 | 0.00 | 0.00 | 0.00 | 50 | 1015.9 |
| 20260503003503 | 13 | 20 | 1.6 | 6.4 | 0.00 | 0.00 | 0.00 | 50 | 1015.8 |
| 20260503003007 | 13 | 22 | 3.2 | 6.4 | 0.00 | 0.00 | 0.00 | 49 | 1015.7 |
| 20260503002505 | 13 | 21 | 1.6 | 6.4 | 0.00 | 0.00 | 0.00 | 48 | 1015.6 |
| 20260503002003 | 13 | 39 | 1.6 | 6.4 | 0.00 | 0.00 | 0.00 | 48 | 1015.6 |
| 20260503001503 | 13 | 21 | 1.6 | 9.7 | 0.00 | 0.00 | 0.00 | 47 | 1015.5 |
| 20260503001004 | 13 | 24 | 0.0 | 9.7 | 0.00 | 0.00 | 0.00 | 46 | 1015.4 |
| 20260503000507 | 14 | 21 | 3.2 | 9.7 | 0.00 | 0.00 | 0.00 | 46 | 1015.3 |
| 20260503000006 | 14 | 56 | 1.6 | 9.7 | 0.00 | 0.00 | 0.00 | 45 | 1015.3 |
| 20260502235504 | 14 | 22 | 1.6 | 9.7 | 0.00 | 0.00 | 0.00 | 45 | 1015.2 |
| 20260502235004 | 14 | 65 | 3.2 | 9.7 | 0.00 | 0.00 | 0.00 | 45 | 1015.2 |
| 20260502234504 | 15 | 7 | 1.6 | 11.3 | 0.00 | 0.00 | 0.00 | 44 | 1015.1 |
| 20260502234004 | 15 | 7 | 3.2 | 12.9 | 0.00 | 0.00 | 0.00 | 44 | 1015.1 |
| 20260502233503 | 15 | 36 | 3.2 | 12.9 | 0.00 | 0.00 | 0.00 | 44 | 1015.1 |
| 20260502233006 | 15 | 19 | 1.6 | 11.3 | 0.00 | 0.00 | 0.00 | 43 | 1015.1 |
| 20260502232503 | 15 | 19 | 1.6 | 11.3 | 0.00 | 0.00 | 0.00 | 43 | 1015.0 |
| 20260502231507 | 15 | 121 | 3.2 | 11.3 | 0.00 | 0.00 | 0.00 | 44 | 1015.1 |
| 20260502231004 | 16 | 327 | 3.2 | 11.3 | 0.00 | 0.00 | 0.00 | 43 | 1015.0 |
| 20260502230504 | 16 | 24 | 3.2 | 11.3 | 0.00 | 0.00 | 0.00 | 43 | 1015.0 |
| 20260502230010 | 16 | 335 | 4.8 | 11.3 | 0.00 | 0.00 | 0.00 | 42 | 1015.0 |
| 20260502225504 | 16 | 31 | 4.8 | 8.0 | 0.00 | 0.00 | 0.00 | 42 | 1014.9 |
| 20260502225008 | 16 | 332 | 3.2 | 11.3 | 0.00 | 0.00 | 0.00 | 40 | 1015.0 |
| 20260502224507 | 16 | 3 | 3.2 | 11.3 | 0.00 | 0.00 | 0.00 | 42 | 1015.0 |
| 20260502224008 | 16 | 47 | 0.0 | 11.3 | 0.00 | 0.00 | 0.00 | 40 | 1015.0 |